Regional Weather Roundup
Issued by NWS San Diego, CA

Home | Current Version | Previous Version | Text Only | Print | Product List | Glossary On
Versions: 1 2 3 4 5 6 7 8 9 10 11 12 13 14 15 16 17 18 19 20 21 22 23 24 25 26 27 28 29 30 31 32 33 34 35 36 37 38 39 40 41 42 43 44 45 46 47 48 49 50
000
ASUS46 KSGX 241511
RWRSGX

SAN DIEGO HOURLY WEATHER ROUNDUP
NATIONAL WEATHER SERVICE SAN DIEGO CA
800 AM PDT SAT JUN 24 2017

NOTE: "FAIR" INDICATES FEW OR NO CLOUDS BELOW 12,000 FEET WITH NO
SIGNIFICANT WEATHER AND/OR OBSTRUCTIONS TO VISIBILITY.

CAZ042-043-060-061-PZZ750-775-241600-

GREATER SAN DIEGO AREA

CITY           SKY/WX    TMP DP  RH WIND       PRES   REMARKS
SAN DIEGO AP   CLOUDY    65  62  90 N10       29.92S
NATIONAL CITY    N/A     65  63  93 NW5       29.92R
CHULA VISTA      N/A     64  62  93 NW2       29.84R
IMPERIAL BEACH CLOUDY    65  61  87 N9        29.91S FOG
BROWN FIELD    CLOUDY    63  62  97 VRB3      29.91R FOG
MIRAMAR MCAS   CLOUDY    64  61  88 N7        29.92R FOG
MONTGOMERY FLD CLOUDY    65  61  87 NW8       29.92R FOG
GILLESPIE FLD  CLOUDY    64  61  88 CALM      29.92R FOG

$$

NORTH SAN DIEGO COUNTY

CITY           SKY/WX    TMP DP  RH WIND       PRES   REMARKS
CAMP PENDLETON CLOUDY    62  62 100 CALM      29.91R FOG
OCEANSIDE AP   CLOUDY    65  62  90 W6        29.91R FOG
OCEANSIDE HBR    N/A     63  61  93 W3        29.93R
VISTA            N/A     62  56  81 CALM      29.89R
CARLSBAD       CLOUDY    62  62 100 W5        29.91R FOG
DEL MAR          N/A     63  62  97 CALM      29.93S
LA JOLLA SCRIP   N/A     62  62  99 NW5       29.91R
FALLBROOK        N/A     62  62 100 CALM      29.94R
ESCONDIDO        N/A     63  61  92 SW3       29.91S
SAN MARCOS       N/A     62  58  87 CALM      29.93R
POWAY            N/A     63  59  87 CALM      29.92R

$$

EAST SAN DIEGO COUNTY

CITY           SKY/WX    TMP DP  RH WIND       PRES   REMARKS
RAMONA         CLOUDY    63  61  93 NW10      29.92S FOG
SANTEE LAKES     N/A     63  60  92 CALM      29.90R
LA MESA          N/A     61  60  94 CALM      29.84S
JAMUL            N/A     61  60  95 CALM      29.90R
DESCANSO N       N/A     92  47  20 E2        29.76F
CAMPO            N/A     77  50  38 CALM      29.92S

$$

ORANGE COUNTY AND THE LOS ANGELES BASIN

CITY           SKY/WX    TMP DP  RH WIND       PRES   REMARKS
JOHN WAYNE AP  CLOUDY    64  61  90 CALM      29.91R FOG
LAKE FOREST FR   N/A     63  58  84 CALM      29.80R
LOS ALAMITOS   CLOUDY    63  60  89 N5        29.90R FOG
FULLERTON      CLOUDY    65  61  87 SW5       29.90R
LONG BEACH     PTSUNNY   63  60  90 CALM      29.90R
L.A. AP        CLOUDY    62  60  93 W12       29.91R FOG
L.A. DOWNTOWN  PTSUNNY   67  60  78 W6        29.90R

$$

THE INLAND EMPIRE

CITY           SKY/WX    TMP DP  RH WIND       PRES   REMARKS
CORONA         PTSUNNY   68  60  75 W6        29.89R
CHINO          PTSUNNY   69  60  73 W6        29.90R
ONTARIO        PTSUNNY   71  60  68 W7        29.89R
SAN BERNARDINO PTSUNNY   75  59  57 CALM      29.89R HAZE
RIVERSIDE AP   PTSUNNY   70  61  73 W5        29.88F
MORENO VALLEY    N/A     77  66  68 CALM      28.02S
MARCH ARB      PTSUNNY   74  61  63 SE6       29.90S
HORSETHIEF CYN   N/A     71  57  62 CALM      29.85F
PERRIS           N/A     70  62  75 S3        29.89F
HEMET EAST       N/A     74  57  55 CALM      29.87F
FRENCH VALLEY  FAIR      72  59  64 S6        29.91S
TEMECULA         N/A     68  62  83 S3        29.95S

$$

SAN BERNARDINO AND RIVERSIDE COUNTY MOUNTAINS

CITY           SKY/WX    TMP DP  RH WIND       PRES   REMARKS
BIG BEAR AP    PTSUNNY   68  41  37 CALM      30.31R
ANGELUS OAKS     N/A     72  43  35 CALM      29.70S
PINE COVE        N/A     76  39  25 NW1       29.79R

$$

SOUTHERN DESERT INCLUDING THE COACHELLA VALLEY

CITY           SKY/WX    TMP DP  RH WIND       PRES   REMARKS
PALM SPRINGS   MOSUNNY   92  57  30 SE6       29.77R
THOUSAND PALMS   N/A     89  67  48 SE3       29.72R
PALM DESERT      N/A     92  68  45 CALM      30.07S HX  95
THERMAL        MOSUNNY   88  68  51 SE3       29.71S
BLYTHE         SUNNY     89  54  30 S6        29.74R
IMPERIAL AP    SUNNY     83  71  67 SE5       29.72R
EL CENTRO NAS  SUNNY     84  70  62 SE3       29.74R
YUMA AZ        SUNNY     89  47  23 SE5       29.73S
MEXICALI       SUNNY     82  61  47 E7        29.73R

$$

UPPER DESERT

CITY           SKY/WX    TMP DP  RH WIND       PRES   REMARKS
VICTORVILLE AP PTSUNNY   84  39  20 SE7       30.00R
HESPERIA         N/A     83  44  25 CALM      29.90S
PALMDALE       MOSUNNY   88  51  28 W5        29.97R
LANCASTER      MOSUNNY   91  52  26 W7        29.96R
EDWARDS AFB    PTSUNNY   88  53  30 SW13      29.93R
DAGGETT        SUNNY     89  48  24 W12       29.91R
29 PALMS N     MOSUNNY   94  37  13 W6        29.95R
NEEDLES        SUNNY     96  47  18 E6        29.78R

$$

REGIONAL REPORTS

CITY           SKY/WX    TMP DP  RH WIND       PRES   REMARKS
SANTA BARBARA  PTSUNNY   61  59  93 S9        29.88R
SANDBERG       MOSUNNY   84  47  27 N16       30.15R
LAS VEGAS NV   MOSUNNY   97  17   5 NE15      29.92R
PHOENIX AZ     MOSUNNY   94  49  21 CALM      29.77R
TIJUANA        FOG       63  61  94 CALM      29.94R VSB 1
ENSENADA NW      N/A     65  32  29 CALM      29.88R

$$

OFFSHORE ISLANDS

CITY           SKY/WX    TMP DP  RH WIND       PRES   REMARKS
CATALINA ARPT  PTSUNNY   64  56  75 VRB7      29.93R
SAN NICOLAS IS CLOUDY    57 N/A N/A W16       29.93R

$$

MARINE AND OFFSHORE BUOY REPORTS

STATION/POSITION SKY/WX   TEMP    WIND        PRES    VSBY  SWELL
                          AIR SEA DIR/SP/G                  HT/PER/DIR
                          (F)     (DEG/KT/KT) (MB)    (MI)  (FT/S/D)
TANNER BANKS               59 61  320/ 14/ 16 1013.8          5/210/16
S CLEMENTE BASIN              64  310/ 14/ 16 1013.3R         5/180/15
SAN NICOLAS IS.               61                N/A           5/190/15
SO. S. ROSA ISLA           58 59  310/ 21/ 25 1012.6R         3/170/15
W. S. BARBARA CH           57 58  300/ 19/ 25 1012.5F         3/240/16
M. S. BARBARA CH           60 62   80/  4/  8 1013.0R         3/250/ 5
S. MONICA BASIN            62 66  210/  8/ 12 1012.5R         3/200/15
S PEDRO CHANNEL               63                N/A           2/160/13
CMP PENDLETON NS              65                N/A           3/210/14
OCEANSIDE OFFSHR              65                N/A           3/210/15
TORREY PINES OTR              67                N/A           3/210/15
SAN DIEGO BAY                 71              1013.2R
POINT LOMA SOUTH              67                N/A           3/230/15

$$





USA.gov is the U.S. government's official web portal to all federal, state and local government web resources and services.